GLOBALSTAR M001 1 25162U 98008A 10070.82918469 -.00000084 00000-0 10000-3 0 5102 2 25162 52.0048 0.0494 0000897 48.8140 311.2792 12.37994134553093 GLOBALSTAR M004 1 25163U 98008B 10070.17664710 -.00000086 00000-0 10000-3 0 5605 2 25163 51.9990 144.4477 0004135 165.5051 194.5948 12.63159295556929 GLOBALSTAR M002 1 25164U 98008C 10070.59551363 -.00000071 00000-0 10000-3 0 4514 2 25164 51.9994 181.4056 0001646 108.0986 252.0010 11.61426629536159 GLOBALSTAR M003 1 25165U 98008D 10070.69996066 -.00000086 00000-0 10000-3 0 5752 2 25165 51.9945 149.5107 0000211 182.6959 177.3916 12.62272010556839 GLOBALSTAR M014 1 25306U 98023A 10071.03084497 -.00000083 00000-0 10000-3 0 4421 2 25306 51.9899 247.3813 0002335 92.7002 267.4113 12.29156085540529 GLOBALSTAR M006 1 25307U 98023B 10071.10870032 -.00000086 00000-0 10000-3 0 2744 2 25307 51.9963 194.4892 0002431 136.2571 223.8487 12.62262678548052 GLOBALSTAR M015 1 25308U 98023C 10070.45332020 -.00000086 00000-0 10000-3 0 2821 2 25308 51.9933 195.8798 0001935 144.0314 216.0685 12.62266940547970 GLOBALSTAR M008 1 25309U 98023D 10070.39925105 -.00000085 00000-0 10000-3 0 2589 2 25309 51.9925 200.0601 0002068 167.7370 192.3554 12.57124399547905 GLOBALSTAR M023 1 25621U 99004A 10070.53483728 -.00000086 00000-0 10000-3 0 2527 2 25621 52.0110 109.6991 0009384 50.0297 310.1377 12.62226365511519 GLOBALSTAR M040 1 25622U 99004B 10069.60357594 -.00000086 00000-0 10000-3 0 1591 2 25622 51.9918 108.4294 0000332 209.9885 150.0960 12.61704099511400 GLOBALSTAR M036 1 25623U 99004C 10070.56711719 -.00000086 00000-0 10000-3 0 1985 2 25623 51.9987 106.7801 0001331 193.6401 166.4427 12.62268477511556 GLOBALSTAR M038 1 25624U 99004D 10070.86899045 -.00000086 00000-0 10000-3 0 1999 2 25624 52.0008 61.8251 0000960 172.1046 187.9828 12.62273951512330 GLOBALSTAR M022 1 25649U 99012A 10071.13323832 -.00000084 00000-0 10000-3 0 1608 2 25649 52.0117 345.3801 0001309 111.7003 248.3982 12.38629658505325 GLOBALSTAR M041 1 25650U 99012B 10070.95820517 -.00000086 00000-0 10000-3 0 2075 2 25650 52.0057 242.2059 0002740 117.7815 242.3329 12.62255809507160 GLOBALSTAR M046 1 25651U 99012C 10069.99023025 -.00000086 00000-0 10000-3 0 2101 2 25651 52.0021 243.3487 0000834 104.9131 255.1827 12.62269470507029 GLOBALSTAR M037 1 25652U 99012D 10070.40633900 -.00000086 00000-0 10000-3 0 1827 2 25652 52.0013 243.2081 0002463 113.4798 246.6332 12.62269746507048 GLOBALSTAR M045 1 25676U 99019A 10070.60213531 -.00000086 00000-0 10000-3 0 3097 2 25676 51.9933 240.5030 0002652 117.5344 242.5791 12.62256985504669 GLOBALSTAR M019 1 25677U 99019B 10071.08939909 -.00000086 00000-0 10000-3 0 2094 2 25677 51.9951 283.7812 0002431 91.0567 269.0578 12.62269312504671 GLOBALSTAR M044 1 25678U 99019C 10071.01285646 -.00000084 00000-0 10000-3 0 2032 2 25678 51.9998 262.7727 0000376 20.5095 339.5779 12.39447334503675 GLOBALSTAR M042 1 25679U 99019D 10070.25074351 -.00000086 00000-0 10000-3 0 2961 2 25679 52.0055 333.2290 0000562 120.7517 239.3406 12.62271144503135 GLOBALSTAR M025 1 25770U 99031A 10070.75496481 -.00000086 00000-0 10000-3 0 1503 2 25770 51.9977 285.4332 0000867 81.8439 278.2517 12.62255323495957 GLOBALSTAR M049 1 25771U 99031B 10071.11935997 -.00000084 00000-0 10000-3 0 3538 2 25771 51.9965 291.0423 0003331 53.3931 306.7232 12.40169325495873 GLOBALSTAR M047 1 25772U 99031C 10070.63594934 -.00000086 00000-0 10000-3 0 2257 2 25772 51.9963 285.3754 0000660 91.2479 268.8458 12.62256573495947 GLOBALSTAR M052 1 25773U 99031D 10069.90381988 -.00000086 00000-0 10000-3 0 9469 2 25773 51.9925 286.3722 0002284 93.0609 267.0518 12.62256205495851 GLOBALSTAR M035 1 25851U 99037A 10069.87083880 -.00000061 00000-0 10000-3 0 8291 2 25851 51.9946 252.1963 0012387 307.3645 52.6022 11.04481185480006 GLOBALSTAR M032 1 25852U 99037B 10071.06447174 -.00000086 00000-0 10000-3 0 1274 2 25852 52.0044 329.8843 0001760 70.9313 289.1744 12.62267326492235 GLOBALSTAR M051 1 25853U 99037C 10070.76760522 -.00000086 00000-0 10000-3 0 1401 2 25853 52.0026 330.6841 0001686 104.2485 255.8548 12.62269101492192 GLOBALSTAR M030 1 25854U 99037D 10070.78734530 -.00000086 00000-0 10000-3 0 1381 2 25854 52.0034 330.9248 0000935 64.3597 295.7364 12.62262723492194 GLOBALSTAR M048 1 25872U 99041A 10070.77979585 -.00000086 00000-0 10000-3 0 1803 2 25872 52.0071 17.1000 0000663 141.9704 218.1207 12.62272426489928 GLOBALSTAR M026 1 25873U 99041B 10070.40391346 -.00000086 00000-0 10000-3 0 1571 2 25873 52.0080 18.3920 0001298 61.1244 298.9748 12.62268262490268 GLOBALSTAR M043 1 25874U 99041C 10070.83726916 -.00000086 00000-0 10000-3 0 1664 2 25874 52.0068 17.0002 0000941 73.0192 287.0775 12.62258739490313 GLOBALSTAR M028 1 25875U 99041D 10071.05705482 -.00000086 00000-0 10000-3 0 1418 2 25875 52.0056 16.0342 0000899 107.2969 252.7990 12.62269800490343 GLOBALSTAR M024 1 25883U 99043A 10070.43389322 -.00000086 00000-0 10000-3 0 1534 2 25883 52.0060 64.0514 0001147 153.7254 206.3667 12.62270145487381 GLOBALSTAR M027 1 25884U 99043B 10070.41595717 -.00000086 00000-0 10000-3 0 1338 2 25884 52.0071 64.0209 0000740 92.2423 267.8523 12.62268862487384 GLOBALSTAR M054 1 25885U 99043C 10070.85470049 -.00000081 00000-0 10000-3 0 993 2 25885 52.0121 314.2968 0000771 71.1826 288.9116 12.20515140482903 GLOBALSTAR M053 1 25886U 99043D 10070.13920071 -.00000086 00000-0 10000-3 0 1536 2 25886 52.0084 64.8764 0000487 312.1104 47.9707 12.62268867487355 GLOBALSTAR M058 1 25907U 99049A 10071.08664156 -.00000086 00000-0 10000-3 0 1495 2 25907 51.9955 59.4247 0000949 122.3941 237.6998 12.62270257483726 GLOBALSTAR M050 1 25908U 99049B 10070.95899787 -.00000079 00000-0 10000-3 0 1088 2 25908 52.0007 301.2136 0009252 80.5049 279.6863 12.07310837479351 GLOBALSTAR M033 1 25909U 99049C 10070.43578475 -.00000086 00000-0 10000-3 0 1381 2 25909 51.9973 61.5791 0000836 75.2029 284.8925 12.62272236483626 GLOBALSTAR M055 1 25910U 99049D 10070.64954662 -.00000084 00000-0 10000-3 0 1526 2 25910 52.0028 125.0245 0001631 95.9029 264.2017 12.38119616482565 GLOBALSTAR M057 1 25943U 99058A 10069.80009736 -.00000086 00000-0 10000-3 0 4694 2 25943 52.0002 198.7253 0002260 110.0925 250.0185 12.62257946479507 GLOBALSTAR M059 1 25944U 99058B 10070.80965083 -.00000086 00000-0 10000-3 0 1229 2 25944 52.0027 196.2490 0001508 95.1874 264.9164 12.62266594479657 GLOBALSTAR M056 1 25945U 99058C 10071.17321211 -.00000086 00000-0 10000-3 0 4627 2 25945 51.9968 148.9219 0001062 171.5472 188.5412 12.62273870480431 GLOBALSTAR M031 1 25946U 99058D 10070.67805669 -.00000086 00000-0 10000-3 0 1443 2 25946 51.9979 150.7799 0003430 98.9516 261.1697 12.62266197480392 GLOBALSTAR M039 1 25961U 99062A 10070.76510475 -.00000086 00000-0 10000-3 0 4244 2 25961 51.9968 329.5586 0000775 141.8742 218.2114 12.62261797476028 GLOBALSTAR M034 1 25962U 99062B 10069.92617558 -.00000086 00000-0 10000-3 0 742 2 25962 51.9999 18.3572 0001073 122.7368 237.3569 12.62290690475136 GLOBALSTAR M029 1 25963U 99062C 10071.16103957 -.00000086 00000-0 10000-3 0 4435 2 25963 51.9926 103.4563 0001772 142.8160 217.2816 12.62269132485783 GLOBALSTAR M061 1 25964U 99062D 10070.87471153 -.00000074 00000-0 10000-3 0 1095 2 25964 51.9765 215.3061 0004595 276.1863 83.8441 11.76686083465004 GLOBALSTAR M063 1 26081U 00008A 10070.71781248 -.00000086 00000-0 10000-3 0 2005 2 26081 51.9987 150.7371 0000428 137.7321 222.3337 12.62271798473764 GLOBALSTAR M062 1 26082U 00008B 10070.94143052 -.00000085 00000-0 10000-3 0 1004 2 26082 52.0072 295.2632 0003361 126.6955 233.4211 12.49987185465344 GLOBALSTAR M060 1 26083U 00008C 10070.80415908 -.00000086 00000-0 10000-3 0 2004 2 26083 52.0032 197.3815 0001573 127.4070 232.6940 12.62270206472988 GLOBALSTAR M064 1 26084U 00008D 10070.18342704 -.00000086 00000-0 10000-3 0 4113 2 26084 52.0054 153.8069 0001984 136.9036 223.1984 12.62264909491655 GLOBALSTAR M065 1 31571U 07020A 10070.65606571 -.00000075 00000-0 15940-3 0 8646 2 31571 51.9926 285.8645 0002436 103.7411 256.3726 12.62266647129499 GLOBALSTAR M069 1 31573U 07020C 10070.52491925 -.00000086 00000-0 10000-3 0 4379 2 31573 51.9926 241.4029 0003017 120.1550 239.9626 12.62270837130212 GLOBALSTAR M072 1 31574U 07020D 10071.20285658 -.00000620 00000-0 -28811-2 0 8614 2 31574 52.0125 330.4234 0001728 90.5752 269.5478 12.62254123128800 GLOBALSTAR M071 1 31576U 07020F 10070.50513692 -.00000086 00000-0 10000-3 0 4590 2 31576 52.0047 242.1979 0002588 117.4817 242.6317 12.62264800130200 GLOBALSTAR M067 1 32263U 07048A 10071.14119635 -.00000104 00000-0 00000+0 0 8134 2 32263 51.9741 103.5011 0001073 189.2204 170.8641 12.62261452111970 GLOBALSTAR M070 1 32264U 07048B 10069.83944061 -.00000086 00000-0 10000-3 0 7635 2 32264 51.9752 197.9374 0002398 140.0964 220.0078 12.62267564110297 GLOBALSTAR M066 1 32265U 07048C 10071.10908281 -.00000104 00000-0 00000+0 0 8214 2 32265 51.9675 58.5712 0000550 359.5336 0.5521 12.62267099112680 GLOBALSTAR M068 1 32266U 07048D 10070.83928221 -.00000086 00000-0 10000-3 0 8258 2 32266 51.9857 15.4589 0000537 80.1827 279.9098 12.62267321113415